Flag for Fiji Weather past 2 weeks in Lautoka, Fiji

Now
75 °F

Scattered clouds.


Feels Like: 78 °F
Forecast: 70 / 77 °F
Wind: 13 mph from Southeast

Location: Nandi

Current Time: Jul 26, 2014 at 11:10:01 AM

Latest Report: Jul 26, 2014 at 11:00 AM


Visibility: N/A

Pressure: 30.09 "Hg

Humidity: 47%

Dew point: 54 °F

Location of LautokaLocation

Historic Weather in Lautoka — Graph

°F

Lautoka temperature yesterday

Maximum temperature yesterday: 79 °F (at 1:00 PM)
Minimum temperature yesterday: 57 °F (at 5:00 AM)
Average temperature yesterday: 68 °F

Past Weeks' High & Low Weather Summary

 TemperatureHumidityPressure
High84 °F (Jul 11, 1:00 PM)100% (Jul 11, 11:00 PM)30.09 "Hg (Jul 11, 11:00 PM)
Low57 °F (Jul 25, 5:00 AM)42% (Jul 25, 2:00 PM)29.77 "Hg (Jul 13, 4:00 PM)
Average71 °F77%29.90 "Hg
* Reported Jul 11 10:00 AM — Jul 26 10:00 AM, Lautoka, Weather by CustomWeather, © 2014

Note: Actual official high and low records may vary slightly from our data, if they occured in-between our weather recording intervals... More about our weather records

Advertising

Lautoka weather history for previous 24 hours

 ConditionsComfort  
Time TempWeatherWind HumidityBarometerVisibility
10:00 AM
Jul 26
73 °FScattered clouds.13 mph57%30.09 "HgN/A
9:00 AM66 °FScattered clouds.8 mph78%30.09 "HgN/A
8:00 AM64 °FScattered clouds.2 mph78%30.09 "HgN/A
7:00 AM61 °FPartly sunny.5 mph88%30.07 "HgN/A
6:00 AM59 °FPassing clouds.5 mph88%30.07 "HgN/A
5:00 AM61 °FPassing clouds.5 mph83%30.04 "HgN/A
4:00 AM59 °FPassing clouds.5 mph88%30.04 "HgN/A
3:00 AM59 °FPassing clouds.2 mph88%30.04 "HgN/A
2:00 AM59 °FPassing clouds.5 mph88%30.04 "HgN/A
1:00 AM63 °FPassing clouds.5 mph77%30.07 "HgN/A
12:00 AM63 °FPassing clouds.5 mph83%30.07 "HgN/A
11:00 PM
Jul 25
63 °FPassing clouds.3 mph83%30.09 "HgN/A
10:00 PM66 °FPassing clouds.5 mph73%30.09 "HgN/A
9:00 PM64 °FPassing clouds.6 mph78%30.07 "HgN/A
8:00 PM66 °FPassing clouds.8 mph68%30.07 "HgN/A
7:00 PM68 °FPassing clouds.9 mph64%30.04 "HgN/A
6:00 PMN/APassing clouds.8 mphN/A30.04 "HgN/A
5:00 PM75 °FScattered clouds.12 mph47%30.01 "HgN/A
4:00 PM77 °FScattered clouds.16 mph44%29.98 "HgN/A
3:00 PM77 °FScattered clouds.16 mph47%29.98 "HgN/A
2:00 PM79 °FScattered clouds.12 mph42%29.98 "HgN/A
1:00 PM79 °FScattered clouds.10 mph45%30.04 "HgN/A
12:00 PM77 °FScattered clouds.12 mph44%30.04 "HgN/A
11:00 AM77 °FScattered clouds.12 mph47%30.07 "HgN/A
Weather by CustomWeather, © 2014

See weather overviewHow to use our weather pages